GW4477 Weather Reports


time (UTC)temp
F
wind
direction
speed
knots
gust
knots
rain 1hr
in
rain 24hr
in
rain mn
in
humidity
%
barometer
mb
20260906033037 80 150 3.5 8.7 0.00 0.00 0.00 58 1015.9
20260906031537 81 360 4.3 10.4 0.00 0.00 0.00 57 1015.9
20260906030012 81 141 5.2 12.2 0.00 0.00 0.00 57 1015.8
20260906024533 81 172 5.2 13.0 0.00 0.00 0.00 57 1015.8
20260906023026 81 184 6.1 11.3 0.00 0.00 0.00 57 1015.5
20260906021529 81 132 5.2 11.3 0.00 0.00 0.00 57 1015.2
20260906020032 82 121 5.2 9.6 0.00 0.00 0.00 56 1015.1
20260906014527 82 360 4.3 10.4 0.00 0.00 0.00 55 1015.0
20260906013039 83 150 6.1 10.4 0.00 0.00 0.00 53 1015.0
20260906011529 85 161 5.2 12.2 0.00 0.00 0.00 52 1014.9
20260906010032 86 176 6.1 10.4 0.00 0.00 0.00 51 1014.8
20260906004531 87 140 4.3 11.3 0.00 0.00 0.00 48 1014.7
20260906003025 90 360 2.6 5.2 0.00 0.00 0.00 40 1014.6
20260906001528 91 167 0.9 7.0 0.00 0.00 0.00 40 1014.8
20260906000030 91 169 2.6 6.1 0.00 0.00 0.00 40 1014.9
20260905234512 92 177 1.7 5.2 0.00 0.00 0.00 40 1014.9
20260905233002 93 360 2.6 9.6 0.00 0.00 0.00 38 1014.7
20260905231504 94 360 4.3 10.4 0.00 0.00 0.00 37 1014.6
20260905230006 96 360 5.2 10.4 0.00 0.00 0.00 36 1014.5
20260905224510 96 226 4.3 11.3 0.00 0.00 0.00 35 1014.3
20260905223014 97 168 5.2 10.4 0.00 0.00 0.00 35 1014.2
20260905221502 97 243 5.2 10.4 0.00 0.00 0.00 38 1014.1
20260905220003 96 162 5.2 9.6 0.00 0.00 0.00 37 1014.1
20260905214507 96 153 4.3 12.2 0.00 0.00 0.00 39 1014.1
20260905213014 96 150 4.3 10.4 0.00 0.00 0.00 40 1014.2
20260905211533 96 247 5.2 8.7 0.00 0.00 0.00 41 1014.5
20260905210004 95 140 4.3 10.4 0.00 0.00 0.00 41 1014.8
20260905204507 94 212 3.5 9.6 0.00 0.00 0.00 43 1015.0
20260905203012 93 186 3.5 12.2 0.00 0.00 0.00 46 1015.4
20260905201518 92 227 3.5 7.8 0.00 0.00 0.00 47 1015.6
20260905200030 92 210 2.6 7.0 0.00 0.00 0.00 49 1015.9
20260905194505 92 167 2.6 7.8 0.00 0.00 0.00 47 1016.0
20260905193008 91 184 3.5 7.0 0.00 0.00 0.00 49 1016.2
20260905191516 90 165 2.6 8.7 0.00 0.00 0.00 51 1016.4
20260905190023 89 135 1.7 5.2 0.00 0.00 0.00 54 1016.4
20260905184535 87 169 2.6 5.2 0.00 0.00 0.00 57 1016.7
20260905183006 86 212 1.7 4.3 0.00 0.00 0.00 58 1016.9
20260905181515 85 165 0.9 3.5 0.00 0.00 0.00 62 1017.0
20260905180022 84 223 1.7 4.3 0.00 0.00 0.00 62 1017.1
20260905174529 83 173 1.7 6.1 0.00 0.00 0.00 62 1017.2
20260905173028 83 168 1.7 7.0 0.00 0.00 0.00 62 1017.2
20260905171515 83 207 1.7 5.2 0.00 0.00 0.00 61 1017.2
20260905170018 83 255 2.6 5.2 0.00 0.00 0.00 60 1017.2
20260905164525 84 211 1.7 9.6 0.00 0.00 0.00 60 1017.1
20260905163033 85 360 3.5 7.8 0.00 0.00 0.00 56 1017.0
20260905161513 86 203 4.3 8.7 0.00 0.00 0.00 56 1016.7
20260905160017 85 194 2.6 8.7 0.00 0.00 0.00 60 1016.7
20260905154523 83 134 3.5 6.1 0.00 0.00 0.00 61 1016.6
20260905153025 82 248 2.6 5.2 0.00 0.00 0.00 63 1016.7
20260905151533 79 161 0.9 5.2 0.00 0.00 0.00 68 1016.8
20260905150013 77 161 0.0 2.6 0.00 0.00 0.00 70 1016.7
20260905144504 75 185 0.0 5.2 0.00 0.00 0.00 72 1016.5
20260905143006 74 182 0.0 0.9 0.00 0.00 0.00 73 1016.6
20260905141508 73 116 0.0 0.0 0.00 0.00 0.00 75 1016.4
20260905140009 72 172 0.0 0.0 0.00 0.00 0.00 75 1016.2
20260905134508 72 172 0.0 0.0 0.00 0.00 0.00 74 1016.0
20260905133004 72 172 0.0 1.7 0.00 0.00 0.00 73 1015.8
20260905131506 71 180 0.0 0.0 0.00 0.00 0.00 75 1015.7
20260905130008 69 171 0.0 1.7 0.00 0.00 0.00 76 1015.6
20260905124510 69 150 0.0 3.5 0.00 0.00 0.00 76 1015.3
20260905123017 69 159 0.0 0.0 0.00 0.00 0.00 74 1015.1
20260905121501 70 167 0.0 2.6 0.00 0.00 0.00 72 1015.1
20260905120007 71 143 0.0 0.0 0.00 0.00 0.00 70 1014.8
20260905114511 72 171 0.0 1.7 0.00 0.00 0.00 68 1015.0
20260905113012 73 171 0.9 2.6 0.00 0.00 0.00 66 1015.1
20260905111517 74 143 0.9 7.0 0.00 0.00 0.00 64 1015.0
20260905110007 75 171 3.5 7.8 0.00 0.00 0.00 63 1015.0
20260905104513 75 155 2.6 7.8 0.00 0.00 0.00 61 1014.6
20260905103016 76 246 0.9 5.2 0.00 0.00 0.00 59 1014.1
20260905101527 77 244 0.9 3.5 0.00 0.00 0.00 57 1014.1
20260905100020 77 261 1.7 6.1 0.00 0.00 0.00 58 1014.3
20260905094511 77 222 1.7 7.0 0.00 0.00 0.00 59 1014.2
20260905093021 77 219 4.3 10.4 0.00 0.00 0.00 57 1014.2
20260905091520 78 272 3.5 12.2 0.00 0.00 0.00 56 1014.5
20260905090023 78 211 6.1 13.0 0.00 0.00 0.00 56 1014.5
20260905084527 77 229 5.2 11.3 0.00 0.00 0.00 58 1014.9
20260905083021 75 237 6.1 12.2 0.00 0.00 0.00 62 1014.8
20260905081524 75 191 4.3 11.3 0.00 0.00 0.00 63 1015.3
20260905080033 75 188 5.2 10.4 0.00 0.00 0.00 66 1015.4
20260905074530 75 193 3.5 12.2 0.00 0.00 0.00 69 1015.6
20260905073035 75 142 5.2 14.8 0.00 0.00 0.00 70 1015.8
20260905071523 75 192 7.0 16.5 0.00 0.00 0.00 65 1014.8
20260905070058 77 225 9.6 16.5 0.00 0.00 0.00 61 1014.8
20260905064529 78 208 7.8 13.9 0.00 0.00 0.00 56 1015.0
20260905063030 78 258 5.2 12.2 0.00 0.00 0.00 56 1015.2
20260905061533 77 231 5.2 9.6 0.00 0.00 0.00 57 1015.4
20260905060034 76 198 3.5 10.4 0.00 0.00 0.00 60 1015.5
20260905054544 76 209 5.2 12.2 0.00 0.00 0.00 61 1015.5
20260905053012 78 205 4.3 9.6 0.00 0.00 0.00 57 1015.8
20260905051534 79 352 4.3 13.0 0.00 0.00 0.00 52 1016.0
20260905050023 80 227 4.3 12.2 0.00 0.00 0.00 51 1016.2
20260905044528 80 217 6.1 11.3 0.00 0.00 0.00 52 1015.9
20260905043008 80 222 6.1 12.2 0.00 0.00 0.00 52 1015.6
20260905041512 80 186 7.0 11.3 0.00 0.00 0.00 53 1015.8
20260905040022 79 209 6.1 13.0 0.00 0.00 0.00 58 1015.8
20260905034533 79 223 6.1 15.6 0.00 0.00 0.00 60 1015.9